#timestamp,LO_Frequency,Hit,StdDev 
1456174815.9,286046137.5,N
1456174835.7,286046139.9,N
1456174855.5,286046139.8,N
1456174875.4,286046159.0,N
1456174895.2,286046159.3,N
1456174915.0,286046159.0,N
1456174915.9,286046159.0,N
1456174935.8,286046156.9,N
1456174955.6,286046157.0,N
1456174975.5,286046157.5,N
1456174995.3,286046157.4,N
1456175015.1,286045604.3,Y
1456175035.9,286046876.4,P
1456175055.7,286046876.1,N
1456175075.5,286046875.2,N
1456175095.4,286046873.9,N
1456175115.2,286047207.1,N
1456175135.1,286046876.0,N
1456175136.0,286046876.0,N
1456175155.8,286046963.5,N
1456175175.6,286046964.1,N
1456175195.5,286046964.4,N
1456175215.3,286046961.3,N
1456175235.1,286046430.5,N
1456175255.9,286046430.2,N
1456175275.7,286046962.2,N
1456175295.6,286046906.8,N
1456175315.4,286046906.2,N
1456175335.2,286046958.6,N
1456175355.1,286046904.9,N
1456175356.0,286046904.9,N
1456175375.8,286046959.5,N
1456175395.6,286045861.4,Y
1456175415.5,286046490.5,P
1456175435.3,286045775.4,P
1456175455.2,286045772.6,N
1456175475.9,286045653.2,N
1456175495.7,286045228.0,Y
1456175515.6,286046046.1,P
1456175535.4,286046318.2,P
1456175555.2,286046209.5,P
1456175575.1,286046212.3,Y
1456175576.0,286046212.3,P
1456175595.8,286046893.7,P
1456175615.7,286046693.0,N
1456175635.5,286047262.3,N
1456175655.3,286047489.7,N
1456175675.2,286047490.7,N
1456175695.0,286047258.1,N
1456175695.9,286047258.1,N
1456175715.8,286046256.8,N
1456175735.6,286046416.9,N
1456175755.4,286046922.3,N
1456175775.3,286047475.1,N
1456175795.1,286047488.7,N
1456175815.9,286046398.3,N
1456175835.7,286048094.9,N
1456175855.5,286045437.2,N
1456175875.4,286048410.5,N
1456175895.2,286048305.0,N
1456175915.0,286047826.8,N
1456175915.9,286047826.8,N
1456175935.8,286047485.3,N
1456175955.6,286047483.5,N
1456175975.5,286047859.0,N
1456175995.3,286047666.9,N
1456176015.1,286047010.7,N
1456176035.9,286049105.4,N
1456176055.7,286049387.8,Y
1456176075.5,286049016.7,P
1456176095.4,286049015.9,N
1456176115.2,286049016.0,N
1456176135.0,286049014.1,N
1456176136.0,286049014.1,N
1456176155.8,286049017.2,Y
1456176205.7,286047292.3,E
1456176215.6,286047079.3,N
1456176235.4,286045931.5,P
1456176255.3,286045933.6,N
1456176275.1,286045933.7,N
1456176276.0,286045933.7,N
1456176295.8,286045932.5,N
1456176315.7,286045935.9,N
1456176335.5,286045686.8,Y
1456176355.4,286046838.5,P
1456176375.2,286046841.2,N
1456176395.0,286046840.4,N
1456176395.9,286046840.4,N
1456176415.8,286046268.1,N
1456176435.6,286046267.4,N
1456176455.4,286047721.5,N
1456176475.3,286048335.8,N
1456176495.1,286046847.0,N
1456176515.9,286047009.4,N
1456176535.7,286048091.8,N
1456176555.5,286047358.6,N
1456176575.4,286047358.8,N
1456176595.2,286047358.2,N
1456176615.0,286047360.8,N
1456176615.9,286047360.8,N
1456176635.8,286047361.2,N
1456176655.6,286047358.9,N
1456176675.5,286047358.5,N
1456176695.3,286047693.9,N
1456176715.1,286047359.8,N
1456176735.9,286048028.7,N
1456176755.7,286047367.1,N
1456176775.5,286047370.7,N
1456176795.4,286047372.2,N
1456176815.2,286047171.7,N
1456176835.0,286047374.5,N
1456176836.0,286047374.5,N
1456176855.8,286047378.1,N
1456176875.6,286047379.1,N
1456176895.5,286047382.7,N
1456176915.3,286047187.9,N
1456176935.1,286047387.8,N
1456176955.9,286047725.7,N
1456176975.7,286047394.0,N
1456176995.6,286048366.1,Y
1456177015.4,286049138.1,P
1456177035.2,286047094.2,N
1456177055.1,286045963.3,N
1456177056.0,286045963.3,N
1456177075.8,286046346.1,N
1456177095.6,286046765.7,N
1456177115.5,286046887.6,N
1456177135.3,286046978.6,N
1456177155.2,286045854.0,N
1456177175.0,286045853.6,N
1456177175.9,286045853.6,N
1456177195.7,286045774.2,N
1456177215.6,286045605.7,N
1456177235.4,286045184.9,N
1456177255.3,286045510.9,N
1456177275.1,286045196.2,N
1456177276.0,286045196.2,N
1456177295.8,286045254.1,N
1456177315.7,286044789.2,N
1456177335.5,286044700.9,N
1456177355.3,286044791.0,N
1456177375.2,286045361.7,N
1456177395.0,286046625.1,N
1456177395.9,286046625.1,N
1456177415.8,286044268.7,N
1456177435.6,286047344.1,N
1456177455.4,286046625.3,N
1456177475.3,286046214.9,N
1456177495.1,286047405.8,N
1456177515.8,286046991.2,N
1456177535.7,286047516.4,N
1456177555.5,286048294.5,N
1456177575.4,286047906.5,N
1456177595.2,286048186.4,N
1456177615.0,286047063.2,N
1456177615.9,286047063.2,N
1456177635.8,286047066.8,N
1456177655.6,286047067.0,N
1456177675.4,286047069.5,N
1456177695.3,286047071.6,N
1456177715.1,286047073.0,N
1456177735.9,286047076.0,N
1456177755.7,286045885.7,N
1456177775.5,286047078.7,N
1456177795.4,286047080.2,N
1456177815.2,286047083.7,N
1456177835.0,286047083.4,N
1456177836.0,286047083.4,N
1456177855.8,286047086.1,N
1456177875.6,286047088.7,N
1456177895.5,286047091.7,N
1456177915.3,286045086.4,N
1456177935.1,286047096.8,N
1456177955.9,286047095.7,N
1456177975.7,286047099.8,N
1456177995.6,286046663.2,N
1456178015.4,286047105.2,N
1456178035.2,286047104.9,N
1456178055.1,286047106.2,N
1456178056.0,286047106.2,N
1456178075.8,286046666.4,N
1456178095.6,286047671.0,N
1456178115.5,286047109.6,N
1456178135.3,286047109.0,N
1456178155.1,286047385.8,N
1456178175.9,286047114.6,N
1456178195.7,286047116.6,N
1456178215.6,286047286.4,N
1456178235.4,286046624.3,N
1456178255.2,286047259.8,N
1456178275.1,286046207.3,N
1456178276.0,286046207.3,N
1456178295.8,286046300.1,N
1456178315.6,286047830.1,N
1456178335.5,286047129.4,N
1456178355.3,286046610.8,N
1456178375.2,286047171.4,N
1456178395.9,286046382.2,N
